,,Stat6,,Stat2,,Stat8,,Stat9,,Stat10,,Wind1,,Wind1,
time,status,PA1M_AVG,status,PR1M_SUM,status,RH1M_AVG,status,SR1M_AVG,status,TA1M_AVG,status,W1dAve1m,status,W1sAve1m,
2007-05-21, 00:00:00,VALID,918.31,VALID,0,VALID,100,VALID,-0.0169808,VALID,21.1835,VALID,45,VALID,0.89169,
2007-05-21, 00:01:00,VALID,918.318,VALID,0,VALID,100,VALID,-0.0509425,VALID,21.1702,VALID,30,VALID,0.731001,
2007-05-21, 00:02:00,VALID,918.325,VALID,0,VALID,100,VALID,-0.0509425,VALID,21.167,VALID,30,VALID,0.302973,
2007-05-21, 00:03:00,VALID,918.318,VALID,0,VALID,100,VALID,-0.0679233,VALID,21.17,VALID,30,VALID,0.0773437,
2007-05-21, 00:04:00,VALID,918.313,VALID,0,VALID,100,VALID,-0.0679233,VALID,21.1794,VALID,36,VALID,0.241071,
2007-05-21, 00:05:00,VALID,918.305,VALID,0,VALID,100,VALID,-0.0509425,VALID,21.1892,VALID,59,VALID,0.238459,
2007-05-21, 00:06:00,VALID,918.326,VALID,0,VALID,100,VALID,-0.0509425,VALID,21.2216,VALID,59,VALID,0.0517805,
2007-05-21, 00:07:00,VALID,918.333,VALID,0,VALID,100,VALID,-0.0509425,VALID,21.2511,VALID,59,VALID,0.063058,
2007-05-21, 00:08:00,VALID,918.322,VALID,0,VALID,100,VALID,-0.0509425,VALID,21.2573,VALID,60,VALID,0.278088,
2007-05-21, 00:09:00,VALID,918.338,VALID,0,VALID,100,VALID,-0.0169808,VALID,21.2573,VALID,37,VALID,0.485973,
2007-05-21, 00:10:00,VALID,918.326,VALID,0,VALID,100,VALID,-0.0679233,VALID,21.27,VALID,27,VALID,0.103693,
2007-05-21, 00:11:00,VALID,918.316,VALID,0,VALID,100,VALID,-0.0169808,VALID,21.2801,VALID,27,VALID,0.280903,
2007-05-21, 00:12:00,VALID,918.299,VALID,0,VALID,100,VALID,-0.0339617,VALID,21.2836,VALID,27,VALID,0.167629,
2007-05-21, 00:13:00,VALID,918.274,VALID,0,VALID,100,VALID,-0.0509425,VALID,21.2738,VALID,3,VALID,0.268643,
2007-05-21, 00:14:00,VALID,918.264,VALID,0,VALID,100,VALID,-0.0679233,VALID,21.2874,VALID,309,VALID,0.15904,
2007-05-21, 00:15:00,VALID,918.252,VALID,0,VALID,100,VALID,-0.0509425,VALID,21.3101,VALID,309,VALID,0.0461128,
2007-05-21, 00:16:00,VALID,918.241,VALID,0,VALID,100,VALID,-0.0339617,VALID,21.3063,VALID,309,VALID,0.143999,
2007-05-21, 00:17:00,VALID,918.235,VALID,0,VALID,100,VALID,-0.0339617,VALID,21.3228,VALID,309,VALID,0,
2007-05-21, 00:18:00,VALID,918.234,VALID,0,VALID,100,VALID,-0.0679233,VALID,21.326,VALID,309,VALID,0,
2007-05-21, 00:19:00,VALID,918.251,VALID,0,VALID,100,VALID,-0.0509425,VALID,21.3452,VALID,328,VALID,0.130145,
2007-05-21, 00:20:00,VALID,918.251,VALID,0,VALID,100,VALID,-0.0509425,VALID,21.368,VALID,44,VALID,0.288281,
2007-05-21, 00:21:00,VALID,918.262,VALID,0,VALID,100,VALID,-0.0849042,VALID,21.3874,VALID,44,VALID,0.485102,
2007-05-21, 00:22:00,VALID,918.274,VALID,0,VALID,100,VALID,-0.0849042,VALID,21.4045,VALID,44,VALID,0.380907,
2007-05-21, 00:23:00,VALID,918.292,VALID,0,VALID,100,VALID,-0.101885,VALID,21.4004,VALID,43,VALID,0.443026,
2007-05-21, 00:24:00,VALID,918.307,VALID,0,VALID,100,VALID,-0.0679233,VALID,21.4129,VALID,42,VALID,0.296131,
2007-05-21, 00:25:00,VALID,918.323,VALID,0,VALID,100,VALID,-0.0169808,VALID,21.4267,VALID,42,VALID,0.126488,
2007-05-21, 00:26:00,VALID,918.336,VALID,0,VALID,100,VALID,-0.0339617,VALID,21.4334,VALID,42,VALID,0.545632,
2007-05-21, 00:27:00,VALID,918.346,VALID,0,VALID,100,VALID,-0.0849042,VALID,21.411,VALID,27,VALID,0.47237,
2007-05-21, 00:28:00,VALID,918.337,VALID,0,VALID,100,VALID,-0.0679233,VALID,21.3948,VALID,24,VALID,0.0135789,
2007-05-21, 00:29:00,VALID,918.329,VALID,0,VALID,100,VALID,-0.0169808,VALID,21.3831,VALID,24,VALID,0,
2007-05-21, 00:30:00,VALID,918.319,VALID,0,VALID,100,VALID,-0.0169808,VALID,21.3734,VALID,24,VALID,0.0383185,
2007-05-21, 00:31:00,VALID,918.308,VALID,0,VALID,100,VALID,0.0339617,VALID,21.3769,VALID,24,VALID,0.000181686,
2007-05-21, 00:32:00,VALID,918.301,VALID,0,VALID,100,VALID,0,VALID,21.3801,VALID,24,VALID,0.00114329,
2007-05-21, 00:33:00,VALID,918.3,VALID,0,VALID,100,VALID,0.0509425,VALID,21.3699,VALID,24,VALID,0,
2007-05-21, 00:34:00,VALID,918.314,VALID,0,VALID,100,VALID,0.0169808,VALID,21.3866,VALID,24,VALID,0.17024,
2007-05-21, 00:35:00,VALID,918.325,VALID,0,VALID,100,VALID,0,VALID,21.3931,VALID,24,VALID,0.357422,
2007-05-21, 00:36:00,VALID,918.334,VALID,0,VALID,100,VALID,0.0169808,VALID,21.3999,VALID,28,VALID,0.768043,
2007-05-21, 00:37:00,VALID,918.351,VALID,0,VALID,100,VALID,0.0169808,VALID,21.3539,VALID,30,VALID,0.739524,
2007-05-21, 00:38:00,VALID,918.372,VALID,0,VALID,100,VALID,0.0169808,VALID,21.3282,VALID,30,VALID,0.662064,
2007-05-21, 00:39:00,VALID,918.383,VALID,0,VALID,100,VALID,0.0169808,VALID,21.3117,VALID,30,VALID,0.626999,
2007-05-21, 00:40:00,VALID,918.387,VALID,0,VALID,100,VALID,0.0509425,VALID,21.2952,VALID,15,VALID,0.836496,
2007-05-21, 00:41:00,VALID,918.385,VALID,0,VALID,100,VALID,0,VALID,21.2633,VALID,352,VALID,0.620046,
2007-05-21, 00:42:00,VALID,918.386,VALID,0,VALID,100,VALID,0.0339617,VALID,21.2463,VALID,25,VALID,0.581214,
2007-05-21, 00:43:00,VALID,918.379,VALID,0,VALID,100,VALID,0.0339617,VALID,21.2665,VALID,25,VALID,0.136458,
2007-05-21, 00:44:00,VALID,918.38,VALID,0,VALID,100,VALID,-0.0339617,VALID,21.2673,VALID,25,VALID,0,
2007-05-21, 00:45:00,VALID,918.373,VALID,0,VALID,100,VALID,-0.101885,VALID,21.2871,VALID,25,VALID,0.00109012,
2007-05-21, 00:46:00,VALID,918.373,VALID,0,VALID,100,VALID,-0.0679233,VALID,21.2903,VALID,31,VALID,0.410429,
2007-05-21, 00:47:00,VALID,918.372,VALID,0,VALID,100,VALID,-0.0849042,VALID,21.2871,VALID,46,VALID,0.582849,
2007-05-21, 00:48:00,VALID,918.37,VALID,0,VALID,100,VALID,-0.101885,VALID,21.2846,VALID,49,VALID,0.687119,
2007-05-21, 00:49:00,VALID,918.377,VALID,0,VALID,100,VALID,-0.0679233,VALID,21.2776,VALID,57,VALID,0.981105,
2007-05-21, 00:50:00,VALID,918.383,VALID,0,VALID,100,VALID,-0.0509425,VALID,21.2549,VALID,57,VALID,0.89169,
2007-05-21, 00:51:00,VALID,918.378,VALID,0,VALID,100,VALID,-0.0849042,VALID,21.2416,VALID,38,VALID,0.653054,
2007-05-21, 00:52:00,VALID,918.363,VALID,0,VALID,100,VALID,-0.101885,VALID,21.2546,VALID,45,VALID,0.717578,
2007-05-21, 00:53:00,VALID,918.375,VALID,0,VALID,100,VALID,-0.0679233,VALID,21.2454,VALID,40,VALID,0.640807,
2007-05-21, 00:54:00,VALID,918.361,VALID,0,VALID,100,VALID,-0.0849042,VALID,21.2389,VALID,40,VALID,0.408794,
2007-05-21, 00:55:00,VALID,918.354,VALID,0,VALID,100,VALID,-0.0849042,VALID,21.2159,VALID,40,VALID,0.0476372,
2007-05-21, 00:56:00,VALID,918.354,VALID,0,VALID,100,VALID,-0.0679233,VALID,21.2186,VALID,40,VALID,0.00121528,
2007-05-21, 00:57:00,VALID,918.346,VALID,0,VALID,100,VALID,-0.0679233,VALID,21.2195,VALID,40,VALID,0,
2007-05-21, 00:58:00,VALID,918.339,VALID,0,VALID,100,VALID,-0.0509425,VALID,21.2059,VALID,40,VALID,0,
2007-05-21, 00:59:00,VALID,918.338,VALID,0,VALID,100,VALID,-0.0679233,VALID,21.2057,VALID,40,VALID,0,
2007-05-21, 01:00:00,VALID,918.341,VALID,0,VALID,100,VALID,-0.0509425,VALID,21.1962,VALID,40,VALID,0,
2007-05-21, 01:01:00,VALID,918.334,VALID,0,VALID,100,VALID,-0.0509425,VALID,21.2127,VALID,40,VALID,0,
2007-05-21, 01:02:00,VALID,918.321,VALID,0,VALID,100,VALID,-0.0339617,VALID,21.2384,VALID,40,VALID,0.193924,
2007-05-21, 01:03:00,VALID,918.299,VALID,0,VALID,100,VALID,-0.0509425,VALID,21.2487,VALID,40,VALID,0.441778,
2007-05-21, 01:04:00,VALID,918.293,VALID,0,VALID,100,VALID,-0.101885,VALID,21.2384,VALID,40,VALID,0.551314,
2007-05-21, 01:05:00,VALID,918.258,VALID,0,VALID,100,VALID,-0.0169808,VALID,21.2381,VALID,40,VALID,0.633358,
2007-05-21, 01:06:00,VALID,918.227,VALID,0,VALID,100,VALID,-0.0169808,VALID,21.2216,VALID,40,VALID,0.594512,
2007-05-21, 01:07:00,VALID,918.214,VALID,0,VALID,100,VALID,-0.0509425,VALID,21.2154,VALID,40,VALID,0.371094,
2007-05-21, 01:08:00,VALID,918.178,VALID,0,VALID,100,VALID,-0.0509425,VALID,21.2192,VALID,39,VALID,0.385121,
2007-05-21, 01:09:00,VALID,918.165,VALID,0,VALID,100,VALID,-0.0509425,VALID,21.2124,VALID,38,VALID,0.424293,
2007-05-21, 01:10:00,VALID,918.145,VALID,0,VALID,100,VALID,-0.0339617,VALID,21.2159,VALID,37,VALID,0.372656,
2007-05-21, 01:11:00,VALID,918.135,VALID,0,VALID,100,VALID,-0.0339617,VALID,21.2216,VALID,35,VALID,0.505149,
2007-05-21, 01:12:00,VALID,918.122,VALID,0,VALID,100,VALID,-0.0339617,VALID,21.2251,VALID,35,VALID,0.365141,
2007-05-21, 01:13:00,VALID,918.115,VALID,0,VALID,100,VALID,0,VALID,21.2249,VALID,39,VALID,0.594113,
2007-05-21, 01:14:00,VALID,918.085,VALID,0,VALID,100,VALID,-0.0339617,VALID,21.2119,VALID,57,VALID,0.793423,
2007-05-21, 01:15:00,VALID,918.057,VALID,0,VALID,100,VALID,-0.0509425,VALID,21.1962,VALID,58,VALID,0.695122,
2007-05-21, 01:16:00,VALID,918.029,VALID,0,VALID,100,VALID,-0.0339617,VALID,21.17,VALID,68,VALID,0.701308,
2007-05-21, 01:17:00,VALID,918.019,VALID,0,VALID,100,VALID,-0.0339617,VALID,21.1415,VALID,73,VALID,0.551847,
2007-05-21, 01:18:00,VALID,917.992,VALID,0,VALID,100,VALID,-0.0169808,VALID,21.1115,VALID,77,VALID,0.494855,
2007-05-21, 01:19:00,VALID,917.964,VALID,0,VALID,100,VALID,0,VALID,21.0856,VALID,77,VALID,0.403088,
2007-05-21, 01:20:00,VALID,917.953,VALID,0,VALID,100,VALID,-0.101885,VALID,21.0601,VALID,77,VALID,0.278525,
2007-05-21, 01:21:00,VALID,917.93,VALID,0,VALID,100,VALID,-0.0679233,VALID,21.0601,VALID,77,VALID,0.13529,
2007-05-21, 01:22:00,VALID,917.911,VALID,0,VALID,100,VALID,-0.0509425,VALID,21.0542,VALID,77,VALID,0.279721,
2007-05-21, 01:23:00,VALID,917.884,VALID,0,VALID,100,VALID,-0.0169808,VALID,21.0401,VALID,77,VALID,0.370508,
2007-05-21, 01:24:00,VALID,917.867,VALID,0,VALID,100,VALID,-0.0679233,VALID,21.0404,VALID,77,VALID,0.502858,
2007-05-21, 01:25:00,VALID,917.851,VALID,0,VALID,100,VALID,-0.0339617,VALID,21.0206,VALID,92,VALID,0.657522,
2007-05-21, 01:26:00,VALID,917.824,VALID,0,VALID,100,VALID,-0.0169808,VALID,21.0014,VALID,101,VALID,0.729167,
2007-05-21, 01:27:00,VALID,917.8,VALID,0,VALID,100,VALID,-0.0679233,VALID,20.9949,VALID,100,VALID,0.75,
2007-05-21, 01:28:00,VALID,917.77,VALID,0,VALID,100,VALID,-0.0509425,VALID,20.9925,VALID,100,VALID,0.90189,
2007-05-21, 01:29:00,VALID,917.757,VALID,0,VALID,100,VALID,-0.0679233,VALID,20.959,VALID,100,VALID,0.846908,
2007-05-21, 01:30:00,VALID,917.733,VALID,0,VALID,100,VALID,-0.0169808,VALID,20.9322,VALID,104,VALID,0.79082,
2007-05-21, 01:31:00,VALID,917.72,VALID,0,VALID,100,VALID,-0.0169808,VALID,20.9105,VALID,114,VALID,0.898619,
2007-05-21, 01:32:00,VALID,917.722,VALID,0,VALID,100,VALID,-0.0169808,VALID,20.8908,VALID,131,VALID,0.851926,
2007-05-21, 01:33:00,VALID,917.698,VALID,0,VALID,100,VALID,-0.0169808,VALID,20.8778,VALID,131,VALID,0.732244,
2007-05-21, 01:34:00,VALID,917.706,VALID,0,VALID,100,VALID,-0.0169808,VALID,20.8581,VALID,144,VALID,1.00991,
2007-05-21, 01:35:00,VALID,917.71,VALID,0,VALID,100,VALID,-0.0169808,VALID,20.8519,VALID,147,VALID,1.06827,
2007-05-21, 01:36:00,VALID,917.709,VALID,0,VALID,100,VALID,-0.0169808,VALID,20.8286,VALID,152,VALID,0.91806,
2007-05-21, 01:37:00,VALID,917.7,VALID,0,VALID,100,VALID,-0.0169808,VALID,20.8156,VALID,148,VALID,1.09785,
2007-05-21, 01:38:00,VALID,917.688,VALID,0,VALID,100,VALID,0.0169808,VALID,20.8094,VALID,151,VALID,0.828819,
2007-05-21, 01:39:00,VALID,917.676,VALID,0,VALID,100,VALID,0,VALID,20.8026,VALID,151,VALID,1.01348,
2007-05-21, 01:40:00,VALID,917.658,VALID,0,VALID,100,VALID,-0.0169808,VALID,20.7799,VALID,155,VALID,0.930575,
2007-05-21, 01:41:00,VALID,917.646,VALID,0,VALID,100,VALID,-0.0339617,VALID,20.7604,VALID,160,VALID,0.851926,
2007-05-21, 01:42:00,VALID,917.616,VALID,0,VALID,100,VALID,0,VALID,20.7277,VALID,162,VALID,0.969131,
2007-05-21, 01:43:00,VALID,917.605,VALID,0,VALID,100,VALID,0,VALID,20.7215,VALID,164,VALID,0.923692,
2007-05-21, 01:44:00,VALID,917.585,VALID,0,VALID,100,VALID,-0.0339617,VALID,20.6988,VALID,156,VALID,0.816146,
2007-05-21, 01:45:00,VALID,917.566,VALID,0,VALID,100,VALID,-0.0169808,VALID,20.6855,VALID,152,VALID,0.700838,
2007-05-21, 01:46:00,VALID,917.549,VALID,0,VALID,100,VALID,-0.0169808,VALID,20.6723,VALID,130,VALID,0.664063,
2007-05-21, 01:47:00,VALID,917.546,VALID,0,VALID,100,VALID,-0.0169808,VALID,20.6758,VALID,99,VALID,0.753729,
2007-05-21, 01:48:00,VALID,917.551,VALID,0,VALID,100,VALID,0,VALID,20.6533,VALID,91,VALID,0.826672,
2007-05-21, 01:49:00,VALID,917.571,VALID,0,VALID,100,VALID,-0.0339617,VALID,20.6436,VALID,91,VALID,0.677689,
2007-05-21, 01:50:00,VALID,917.593,VALID,0,VALID,100,VALID,0,VALID,20.6209,VALID,99,VALID,0.745561,
2007-05-21, 01:51:00,VALID,917.61,VALID,0,VALID,100,VALID,0,VALID,20.5787,VALID,131,VALID,0.98952,
2007-05-21, 01:52:00,VALID,917.609,VALID,0,VALID,100,VALID,0,VALID,20.5468,VALID,146,VALID,0.927284,
2007-05-21, 01:53:00,VALID,917.609,VALID,0,VALID,100,VALID,-0.0339617,VALID,20.5105,VALID,141,VALID,0.833333,
2007-05-21, 01:54:00,VALID,917.606,VALID,0,VALID,100,VALID,-0.0339617,VALID,20.4978,VALID,143,VALID,0.90734,
2007-05-21, 01:55:00,VALID,917.595,VALID,0,VALID,100,VALID,0,VALID,20.4978,VALID,150,VALID,1.17378,
2007-05-21, 01:56:00,VALID,917.585,VALID,0,VALID,100,VALID,0,VALID,20.5235,VALID,149,VALID,1.28997,
2007-05-21, 01:57:00,VALID,917.576,VALID,0,VALID,100,VALID,-0.0509425,VALID,20.53,VALID,149,VALID,1.04383,
2007-05-21, 01:58:00,VALID,917.574,VALID,0,VALID,100,VALID,-0.0339617,VALID,20.5495,VALID,143,VALID,1.05646,
2007-05-21, 01:59:00,VALID,917.579,VALID,0,VALID,100,VALID,-0.0679233,VALID,20.55,VALID,152,VALID,1.03981,
2007-05-21, 02:00:01,VALID,917.58,VALID,0,VALID,100,VALID,-0.0509425,VALID,20.5595,VALID,144,VALID,0.899219,
2007-05-21, 02:01:01,VALID,917.578,VALID,0,VALID,100,VALID,-0.0509425,VALID,20.5433,VALID,151,VALID,1.0506,
2007-05-21, 02:02:00,VALID,917.587,VALID,0,VALID,100,VALID,-0.0339617,VALID,20.5465,VALID,156,VALID,1.02943,
2007-05-21, 02:03:01,VALID,917.58,VALID,0,VALID,100,VALID,-0.0339617,VALID,20.553,VALID,163,VALID,1.07378,
2007-05-21, 02:04:00,VALID,917.577,VALID,0,VALID,100,VALID,0,VALID,20.559,VALID,156,VALID,1.01172,
2007-05-21, 02:05:00,VALID,917.56,VALID,0,VALID,100,VALID,-0.0169808,VALID,20.579,VALID,157,VALID,1.18041,
2007-05-21, 02:06:01,VALID,917.55,VALID,0,VALID,100,VALID,0,VALID,20.5917,VALID,161,VALID,0.80293,
2007-05-21, 02:07:00,VALID,917.546,VALID,0,VALID,100,VALID,-0.0169808,VALID,20.5852,VALID,165,VALID,0.693945,
2007-05-21, 02:08:01,VALID,917.542,VALID,0,VALID,100,VALID,-0.0509425,VALID,20.5917,VALID,145,VALID,0.788318,
2007-05-21, 02:09:01,VALID,917.538,VALID,0,VALID,100,VALID,-0.0169808,VALID,20.5852,VALID,148,VALID,1.00226,
2007-05-21, 02:10:01,VALID,917.549,VALID,0,VALID,100,VALID,-0.0509425,VALID,20.5657,VALID,145,VALID,0.898047,
2007-05-21, 02:11:00,VALID,917.536,VALID,0,VALID,100,VALID,-0.0679233,VALID,20.5595,VALID,143,VALID,0.921148,
2007-05-21, 02:12:01,VALID,917.536,VALID,0,VALID,100,VALID,-0.0169808,VALID,20.5565,VALID,139,VALID,1.00444,
2007-05-21, 02:13:01,VALID,917.531,VALID,0,VALID,100,VALID,-0.0679233,VALID,20.5565,VALID,142,VALID,0.849019,
2007-05-21, 02:14:00,VALID,917.527,VALID,0,VALID,100,VALID,-0.0339617,VALID,20.5495,VALID,137,VALID,0.871982,
2007-05-21, 02:15:00,VALID,917.533,VALID,0,VALID,100,VALID,-0.0339617,VALID,20.5525,VALID,138,VALID,0.479759,
2007-05-21, 02:16:00,VALID,917.522,VALID,0,VALID,100,VALID,-0.0339617,VALID,20.5495,VALID,143,VALID,0.478659,
2007-05-21, 02:17:00,VALID,917.527,VALID,0,VALID,100,VALID,-0.0509425,VALID,20.553,VALID,153,VALID,0.587612,
2007-05-21, 02:18:01,VALID,917.521,VALID,0,VALID,100,VALID,-0.0509425,VALID,20.5462,VALID,153,VALID,0.464939,
2007-05-21, 02:19:00,VALID,917.508,VALID,0,VALID,100,VALID,-0.0679233,VALID,20.5495,VALID,152,VALID,0.577943,
2007-05-21, 02:20:00,VALID,917.512,VALID,0,VALID,100,VALID,-0.0339617,VALID,20.5427,VALID,152,VALID,0.275112,
2007-05-21, 02:21:01,VALID,917.505,VALID,0,VALID,100,VALID,-0.0169808,VALID,20.543,VALID,152,VALID,0.186228,
2007-05-21, 02:22:01,VALID,917.505,VALID,0,VALID,100,VALID,-0.0169808,VALID,20.5425,VALID,152,VALID,0.0463299,
2007-05-21, 02:23:01,VALID,917.492,VALID,0,VALID,100,VALID,0,VALID,20.5527,VALID,152,VALID,0.128993,
2007-05-21, 02:24:00,VALID,917.504,VALID,0,VALID,100,VALID,-0.0169808,VALID,20.5525,VALID,166,VALID,0.27474,
2007-05-21, 02:25:01,VALID,917.495,VALID,0,VALID,100,VALID,-0.0339617,VALID,20.5527,VALID,180,VALID,0.144531,
2007-05-21, 02:26:01,VALID,917.49,VALID,0,VALID,100,VALID,0,VALID,20.546,VALID,216,VALID,0.354492,
2007-05-21, 02:27:00,VALID,917.467,VALID,0,VALID,100,VALID,0,VALID,20.5462,VALID,263,VALID,0.511242,
2007-05-21, 02:28:00,VALID,917.465,VALID,0,VALID,100,VALID,0,VALID,20.5398,VALID,263,VALID,0.224826,
2007-05-21, 02:29:01,VALID,917.442,VALID,0,VALID,100,VALID,-0.0169808,VALID,20.5233,VALID,263,VALID,0.158203,
2007-05-21, 02:30:01,VALID,917.429,VALID,0,VALID,100,VALID,0,VALID,20.5105,VALID,263,VALID,0.0852581,
2007-05-21, 02:31:00,VALID,917.405,VALID,0,VALID,100,VALID,-0.0169808,VALID,20.4619,VALID,263,VALID,0.0394259,
2007-05-21, 02:32:01,VALID,917.382,VALID,0,VALID,100,VALID,-0.0339617,VALID,20.3845,VALID,263,VALID,0.0256696,
2007-05-21, 02:33:00,VALID,917.36,VALID,0,VALID,100,VALID,-0.0339617,VALID,20.3548,VALID,263,VALID,0.342262,
2007-05-21, 02:34:01,VALID,917.334,VALID,0,VALID,100,VALID,-0.0339617,VALID,20.3158,VALID,28,VALID,0.861235,
2007-05-21, 02:35:01,VALID,917.319,VALID,0,VALID,100,VALID,0,VALID,20.2607,VALID,72,VALID,0.937153,
2007-05-21, 02:36:01,VALID,917.316,VALID,0,VALID,100,VALID,-0.0339617,VALID,20.2609,VALID,72,VALID,0.692014,
2007-05-21, 02:37:01,VALID,917.322,VALID,0,VALID,100,VALID,-0.0169808,VALID,20.2604,VALID,72,VALID,0.448958,
2007-05-21, 02:38:01,VALID,917.302,VALID,0,VALID,100,VALID,-0.0169808,VALID,20.2672,VALID,72,VALID,0.484193,
2007-05-21, 02:39:00,VALID,917.31,VALID,0,VALID,100,VALID,-0.0339617,VALID,20.2542,VALID,72,VALID,0.459135,
2007-05-21, 02:40:01,VALID,917.3,VALID,0,VALID,100,VALID,-0.0509425,VALID,20.2444,VALID,72,VALID,0.557355,
2007-05-21, 02:41:01,VALID,917.3,VALID,0,VALID,100,VALID,0,VALID,20.2509,VALID,72,VALID,0.577951,
2007-05-21, 02:42:01,VALID,917.301,VALID,0,VALID,100,VALID,-0.0509425,VALID,20.2409,VALID,74,VALID,0.586806,
2007-05-21, 02:43:01,VALID,917.297,VALID,0,VALID,100,VALID,-0.0169808,VALID,20.2058,VALID,77,VALID,0.53234,
2007-05-21, 02:44:01,VALID,917.288,VALID,0,VALID,100,VALID,-0.0679233,VALID,20.1568,VALID,77,VALID,0.312855,
2007-05-21, 02:45:01,VALID,917.278,VALID,0,VALID,100,VALID,-0.135847,VALID,20.1409,VALID,77,VALID,0.291061,
2007-05-21, 02:46:01,VALID,917.291,VALID,0,VALID,100,VALID,-0.101885,VALID,20.1081,VALID,77,VALID,0,
2007-05-21, 02:47:01,VALID,917.306,VALID,0,VALID,100,VALID,-0.0679233,VALID,20.0627,VALID,77,VALID,0,
2007-05-21, 02:48:00,VALID,917.314,VALID,0,VALID,100,VALID,-0.101885,VALID,20.04,VALID,77,VALID,0,
2007-05-21, 02:49:00,VALID,917.323,VALID,0,VALID,100,VALID,-0.101885,VALID,20.0113,VALID,77,VALID,0,
2007-05-21, 02:50:00,VALID,917.333,VALID,0,VALID,100,VALID,-0.101885,VALID,20.0016,VALID,77,VALID,0.372396,
2007-05-21, 02:51:00,VALID,917.36,VALID,0,VALID,100,VALID,-0.0849042,VALID,19.9948,VALID,77,VALID,0.659108,
2007-05-21, 02:52:00,VALID,917.365,VALID,0,VALID,100,VALID,-0.101885,VALID,20.0435,VALID,77,VALID,0.830602,
2007-05-21, 02:53:00,VALID,917.375,VALID,0,VALID,100,VALID,-0.101885,VALID,20.0592,VALID,77,VALID,0.702592,
2007-05-21, 02:54:00,VALID,917.388,VALID,0,VALID,100,VALID,-0.0679233,VALID,20.0495,VALID,77,VALID,0.54851,
2007-05-21, 02:55:00,VALID,917.411,VALID,0,VALID,100,VALID,-0.0679233,VALID,20.056,VALID,77,VALID,0.514717,
2007-05-21, 02:56:00,VALID,917.401,VALID,0,VALID,100,VALID,-0.101885,VALID,20.0692,VALID,77,VALID,0.379954,
2007-05-21, 02:57:00,VALID,917.396,VALID,0,VALID,100,VALID,-0.0679233,VALID,20.0889,VALID,77,VALID,0.339311,
2007-05-21, 02:58:00,VALID,917.374,VALID,0,VALID,100,VALID,-0.101885,VALID,20.1081,VALID,77,VALID,0.367746,
2007-05-21, 02:59:00,VALID,917.367,VALID,0,VALID,100,VALID,-0.101885,VALID,20.0814,VALID,77,VALID,0.420632,
2007-05-21, 03:00:00,VALID,917.361,VALID,0,VALID,100,VALID,-0.0849042,VALID,20.056,VALID,77,VALID,0.410866,
2007-05-21, 03:01:00,VALID,917.353,VALID,0,VALID,100,VALID,-0.135847,VALID,20.0757,VALID,77,VALID,0.325068,
2007-05-21, 03:02:00,VALID,917.364,VALID,0,VALID,100,VALID,-0.101885,VALID,20.1084,VALID,77,VALID,0.110863,
2007-05-21, 03:03:00,VALID,917.375,VALID,0,VALID,100,VALID,-0.101885,VALID,20.1184,VALID,77,VALID,0,
2007-05-21, 03:04:00,VALID,917.38,VALID,0,VALID,100,VALID,-0.101885,VALID,20.1209,VALID,77,VALID,0,
2007-05-21, 03:05:00,VALID,917.39,VALID,0,VALID,100,VALID,-0.135847,VALID,20.1281,VALID,77,VALID,0,
2007-05-21, 03:06:00,VALID,917.373,VALID,0,VALID,100,VALID,-0.118866,VALID,20.1314,VALID,77,VALID,0,
2007-05-21, 03:07:00,VALID,917.38,VALID,0,VALID,100,VALID,-0.101885,VALID,20.1149,VALID,77,VALID,0,
2007-05-21, 03:08:00,VALID,917.372,VALID,0,VALID,100,VALID,-0.118866,VALID,20.0662,VALID,77,VALID,0,
2007-05-21, 03:09:00,VALID,917.381,VALID,0,VALID,100,VALID,-0.118866,VALID,19.9786,VALID,77,VALID,0,
2007-05-21, 03:10:00,VALID,917.402,VALID,0,VALID,100,VALID,-0.0849042,VALID,19.904,VALID,77,VALID,0,
2007-05-21, 03:11:00,VALID,917.409,VALID,0,VALID,100,VALID,-0.101885,VALID,19.8516,VALID,77,VALID,0,
2007-05-21, 03:12:00,VALID,917.411,VALID,0,VALID,100,VALID,-0.118866,VALID,19.8648,VALID,77,VALID,0,
2007-05-21, 03:13:00,VALID,917.405,VALID,0,VALID,100,VALID,-0.118866,VALID,19.891,VALID,77,VALID,0,
2007-05-21, 03:14:00,VALID,917.383,VALID,0,VALID,100,VALID,-0.0679233,VALID,19.9002,VALID,77,VALID,0.0284598,
2007-05-21, 03:15:00,VALID,917.37,VALID,0,VALID,100,VALID,-0.0169808,VALID,19.8408,VALID,77,VALID,0.270167,
2007-05-21, 03:16:00,VALID,917.331,VALID,0,VALID,100,VALID,0,VALID,19.8154,VALID,50,VALID,0.193359,
2007-05-21, 03:17:00,VALID,917.308,VALID,0,VALID,100,VALID,-0.0169808,VALID,19.8119,VALID,45,VALID,0.201853,
2007-05-21, 03:18:00,VALID,917.291,VALID,0,VALID,100,VALID,0,VALID,19.8346,VALID,44,VALID,0.0877131,
2007-05-21, 03:19:00,VALID,917.266,VALID,0,VALID,100,VALID,-0.0169808,VALID,19.87,VALID,44,VALID,0,
2007-05-21, 03:20:00,VALID,917.258,VALID,0,VALID,100,VALID,0,VALID,19.9087,VALID,44,VALID,0,
2007-05-21, 03:21:00,VALID,917.236,VALID,0,VALID,100,VALID,-0.0169808,VALID,19.9257,VALID,44,VALID,0,
2007-05-21, 03:22:00,VALID,917.217,VALID,0,VALID,100,VALID,-0.0339617,VALID,19.9062,VALID,44,VALID,0,
2007-05-21, 03:23:00,VALID,917.208,VALID,0,VALID,100,VALID,-0.0339617,VALID,19.8992,VALID,44,VALID,0,
2007-05-21, 03:24:00,VALID,917.216,VALID,0,VALID,100,VALID,0,VALID,19.8503,VALID,44,VALID,0.00892857,
2007-05-21, 03:25:00,VALID,917.206,VALID,0,VALID,100,VALID,0,VALID,19.747,VALID,44,VALID,0.201705,
2007-05-21, 03:26:00,VALID,917.202,VALID,0,VALID,100,VALID,0,VALID,19.6037,VALID,44,VALID,0.303445,
2007-05-21, 03:27:00,VALID,917.199,VALID,0,VALID,100,VALID,0,VALID,19.5521,VALID,44,VALID,0.0184152,
2007-05-21, 03:28:00,VALID,917.192,VALID,0,VALID,100,VALID,0,VALID,19.5586,VALID,44,VALID,0,
2007-05-21, 03:29:00,VALID,917.194,VALID,0,VALID,100,VALID,-0.0339617,VALID,19.5561,VALID,44,VALID,0,
2007-05-21, 03:30:00,VALID,917.189,VALID,0,VALID,100,VALID,-0.0339617,VALID,19.576,VALID,44,VALID,0,
2007-05-21, 03:31:00,VALID,917.2,VALID,0,VALID,100,VALID,-0.0509425,VALID,19.5887,VALID,44,VALID,0,
2007-05-21, 03:32:00,VALID,917.204,VALID,0,VALID,100,VALID,-0.0679233,VALID,19.6055,VALID,44,VALID,0,
2007-05-21, 03:33:00,VALID,917.221,VALID,0,VALID,100,VALID,-0.0849042,VALID,19.6606,VALID,44,VALID,0.0380208,
2007-05-21, 03:34:00,VALID,917.221,VALID,0,VALID,100,VALID,-0.0339617,VALID,19.6801,VALID,44,VALID,0.081936,
2007-05-21, 03:35:00,VALID,917.25,VALID,0,VALID,100,VALID,-0.0339617,VALID,19.569,VALID,44,VALID,0.164993,
2007-05-21, 03:36:00,VALID,917.268,VALID,0,VALID,100,VALID,-0.0339617,VALID,19.6209,VALID,44,VALID,0.605378,
2007-05-21, 03:37:00,VALID,917.293,VALID,0,VALID,100,VALID,-0.0339617,VALID,19.6961,VALID,44,VALID,0.430273,
2007-05-21, 03:38:00,VALID,917.307,VALID,0,VALID,100,VALID,-0.0169808,VALID,19.6634,VALID,44,VALID,0.306686,
2007-05-21, 03:39:00,VALID,917.314,VALID,0,VALID,100,VALID,-0.101885,VALID,19.589,VALID,44,VALID,0.159268,
2007-05-21, 03:40:00,VALID,917.304,VALID,0,VALID,100,VALID,-0.0339617,VALID,19.6277,VALID,44,VALID,0,